This demonstration page uses our WeatherBlox Daily Observations layout. Learn more.

Left ArrowRight Arrow

40.97296, -117.73568

Hourly Observations for August 15, 2015

Temp ( °F °C ) Dew Point ( °F °C ) Humidity (%) Winds ( mph kmh ) Pressure ( in mb ) Visibility ( mi km ) Precip ( " mm )
12:56 am 00:56 Clear 59 15 19 -7.2 21 21 WSW 5 7 30.04 1017 10 16 0.00 0.00
1:56 am 01:56 Clear 53 11.7 20 -6.7 27 27 W 6 9 30.05 1018 10 16 0.00 0.00
2:56 am 02:56 Clear 55 12.8 21 -6.1 26 26 W 10 17 30.06 1018 10 16 0.00 0.00
3:56 am 03:56 Clear 48 8.9 22 -5.6 36 36 Calm 30.08 1019 10 16 0.00 0.00
4:56 am 04:56 Clear 49 9.4 24 -4.4 38 38 WSW 6 9 30.08 1019 10 16 0.00 0.00
5:56 am 05:56 Clear 51 10.6 30 -1.1 44 44 NW 3 6 30.09 1019 10 16 0.00 0.00
6:56 am 06:56 Sunny 59 15 31 -0.6 35 35 NNW 5 7 30.10 1019 10 16 0.00 0.00
7:56 am 07:56 Sunny 63 17.2 33 0.6 33 33 Calm 30.11 1020 10 16 0.00 0.00
8:56 am 08:56 Sunny 69 20.6 36 2.2 30 30 NNE 9 15 30.09 1019 10 16 0.00 0.00
9:56 am 09:56 Sunny 73 22.8 36 2.2 26 26 NNE 8 13 30.08 1019 10 16 0.00 0.00
10:56 am 10:56 Sunny 77 25 33 0.6 20 20 N 6 9 30.08 1019 10 16 0.00 0.00
11:56 am 11:56 Sunny 80 26.7 28 -2.2 15 15 Calm 30.07 1018 10 16 0.00 0.00
12:56 pm 12:56 Sunny 82 27.8 30 -1.1 15 15 VRB 5 7 30.05 1018 10 16 0.00 0.00
1:56 pm 13:56 Sunny 85 29.4 29 -1.7 13 13 VRB 5 7 30.04 1017 10 16 0.00 0.00
2:56 pm 14:56 Sunny 86 30 27 -2.8 12 12 Calm 30.01 1016 10 16 0.00 0.00
3:56 pm 15:56 Sunny 90 32.2 19 -7.2 7 7 SW 13 20 29.99 1016 10 16 0.00 0.00
4:56 pm 16:56 Sunny 88 31.1 26 -3.3 10 10 W 13 20 29.98 1015 10 16 0.00 0.00
5:56 pm 17:56 Sunny 85 29.4 24 -4.4 11 11 WNW 10 17 29.98 1015 10 16 0.00 0.00
6:56 pm 18:56 Sunny 84 28.9 24 -4.4 11 11 W 8 13 29.96 1015 10 16 0.00 0.00
7:56 pm 19:56 Clear 75 23.9 26 -3.3 16 16 WNW 6 9 29.98 1015 10 16 0.00 0.00
8:56 pm 20:56 Clear 67 19.4 25 -3.9 20 20 Calm 30.00 1016 10 16 0.00 0.00
9:56 pm 21:56 Clear 68 20 25 -3.9 20 20 S 3 6 29.99 1016 10 16 0.00 0.00
10:56 pm 22:56 Clear 57 13.9 25 -3.9 29 29 SSE 5 7 30.02 1017 10 16 0.00 0.00
11:56 pm 23:56 Clear 57 13.9 28 -2.2 33 33 ESE 5 7 30.01 1016 10 16 0.00 0.00

Powered by AerisWeather